Date String (YYYY-MM-DD hh:mm:ss) UTC,Instrument flags,Ambient pressure (hPa),Sample flow (lpm),Bypass flow (lpm),Sample temperature (°C),Ambient temperature (°C),ASC tube jacket temperature (°C),LED temperature (°C),Box temperature (°C),Sample RH (%),Span deviation,Mass concentration (μg/m³),Mass concentration (μg/m³),Mass concentration (μg/m³)
DateTimeUTC,F1_M11,P_M11,Q1_M11,Q2_M11,T1_M11,T2_M11,T3_M11,T4_M11,T5_M11,U1_M11,ZSPAN_M11,X2_M11,X0_M11,X1_M11
2021-11-01 00:00:00,,0829.5,5.01,0.00,26.0,25.1,00.0,35.0,27.9,17.4,0000.0,0005.10,0009.63,0004.61
2021-11-01 00:01:00,,0829.5,4.99,0.00,26.0,25.1,00.0,35.0,27.9,17.3,0000.0,0005.09,0009.56,0004.61
2021-11-01 00:02:00,,0829.6,5.01,0.00,26.0,25.2,00.0,35.0,27.9,17.2,0000.0,0005.08,0009.59,0004.61
2021-11-01 00:03:00,,0829.6,4.99,0.00,26.0,25.2,00.0,35.0,27.9,17.1,0000.0,0005.08,0010.00,0004.61
2021-11-01 00:04:00,,0829.8,5.00,0.00,26.0,25.2,00.0,35.0,27.9,17.2,0000.0,0005.08,0010.59,0004.61
2021-11-01 00:05:00,,0829.9,5.02,0.00,26.0,25.2,00.0,35.0,27.9,17.2,0000.0,0005.10,0011.05,0004.61
2021-11-01 00:06:00,,0829.9,5.01,0.00,26.0,25.1,00.0,35.0,27.8,17.2,0000.0,0005.10,0011.91,0004.61
2021-11-01 00:07:00,,0829.8,5.01,0.00,26.0,25.1,00.0,35.0,27.8,17.1,0000.0,0005.09,0012.26,0004.61
2021-11-01 00:08:00,,0829.8,5.00,0.00,26.0,25.1,00.0,35.0,27.8,17.1,0000.0,0005.07,0012.45,0004.61
2021-11-01 00:09:00,,0829.9,4.99,0.00,26.0,25.1,00.0,35.0,27.8,17.0,0000.0,0005.08,0012.83,0004.62
2021-11-01 00:10:00,,0829.8,5.01,0.00,26.0,25.1,00.0,35.0,27.8,17.1,0000.0,0005.12,0013.01,0004.62
2021-11-01 00:11:00,,0829.8,5.01,0.00,26.0,25.1,00.0,35.0,27.8,17.0,0000.0,0005.17,0013.25,0004.64
2021-11-01 00:12:00,,0829.7,5.00,0.00,26.0,25.1,00.0,35.0,27.8,17.0,0000.0,0005.18,0012.99,0004.65
2021-11-01 00:13:00,,0829.6,5.00,0.00,26.0,25.1,00.0,35.0,27.8,17.1,0000.0,0005.19,0013.54,0004.67
2021-11-01 00:14:00,,0829.6,5.00,0.00,26.0,25.1,00.0,35.0,27.8,17.1,0000.0,0005.19,0013.14,0004.68
2021-11-01 00:15:00,,0829.5,5.00,0.00,26.0,25.1,00.0,35.0,27.8,17.1,0000.0,0005.20,0012.88,0004.69
2021-11-01 00:16:00,,0829.6,4.99,0.00,26.0,25.1,00.0,35.0,27.8,17.0,0000.0,0005.24,0012.77,0004.71
2021-11-01 00:17:00,,0829.5,5.00,0.00,26.0,25.1,00.0,35.0,27.8,17.0,0000.0,0005.25,0012.03,0004.72
2021-11-01 00:18:00,,0829.5,5.00,0.00,26.0,25.1,00.0,35.0,27.9,17.0,0000.0,0005.24,0011.49,0004.72
2021-11-01 00:19:00,,0829.3,5.00,0.00,26.0,25.1,00.0,35.0,27.9,17.0,0000.0,0005.23,0011.22,0004.71
2021-11-01 00:20:00,,0829.4,5.01,0.00,26.0,25.1,00.0,35.0,27.9,16.9,0000.0,0005.24,0010.78,0004.71
2021-11-01 00:21:00,,0829.2,5.00,0.00,26.0,25.1,00.0,35.0,27.9,16.9,0000.0,0005.24,0011.13,0004.72
2021-11-01 00:22:00,,0829.2,5.00,0.00,26.0,25.1,00.0,35.0,27.9,16.9,0000.0,0005.22,0010.79,0004.71
2021-11-01 00:23:00,,0829.2,4.99,0.00,26.0,25.1,00.0,35.0,27.9,16.9,0000.0,0005.24,0011.90,0004.71
2021-11-01 00:24:00,,0829.2,5.01,0.00,26.0,25.1,00.0,35.0,27.8,16.9,0000.0,0005.26,0011.67,0004.72
2021-11-01 00:25:00,,0829.3,4.99,0.00,26.0,25.1,00.0,35.0,27.8,17.0,0000.0,0005.28,0011.79,0004.71
2021-11-01 00:26:00,,0829.3,5.00,0.00,26.0,25.1,00.0,35.0,27.8,16.9,0000.0,0005.29,0011.86,0004.71
2021-11-01 00:27:00,,0829.2,5.01,0.00,26.0,25.1,00.0,35.0,27.8,16.9,0000.0,0005.27,0012.13,0004.71
2021-11-01 00:28:00,,0829.3,4.99,0.00,26.0,25.1,00.0,35.0,27.8,16.8,0000.0,0005.26,0012.33,0004.71
2021-11-01 00:29:00,,0829.3,5.01,0.00,26.0,25.0,00.0,35.0,27.8,16.8,0000.0,0005.27,0012.41,0004.71
2021-11-01 00:30:00,,0829.3,4.99,0.00,26.0,25.0,00.0,35.0,27.8,16.9,0000.0,0005.27,0012.38,0004.72
2021-11-01 00:31:00,,0829.3,5.00,0.00,26.0,25.0,00.0,35.0,27.8,16.9,0000.0,0005.24,0012.00,0004.72
2021-11-01 00:32:00,,0829.5,5.00,0.00,25.9,25.0,00.0,35.0,27.8,16.9,0000.0,0005.22,0011.49,0004.71
2021-11-01 00:33:00,,0829.6,5.01,0.00,25.9,25.0,00.0,35.0,27.8,16.9,0000.0,0005.24,0011.89,0004.72
2021-11-01 00:34:00,,0829.6,4.99,0.00,25.9,25.0,00.0,35.0,27.8,16.9,0000.0,0005.19,0010.63,0004.71
2021-11-01 00:35:00,,0829.8,5.00,0.00,25.9,25.1,00.0,35.0,27.8,16.8,0000.0,0005.18,0010.39,0004.70
2021-11-01 00:36:00,,0829.6,5.01,0.00,25.9,25.0,00.0,35.0,27.8,16.8,0000.0,0005.20,0010.28,0004.71
2021-11-01 00:37:00,,0829.6,5.00,0.00,25.9,25.0,00.0,35.0,27.8,16.9,0000.0,0005.22,0010.02,0004.71
2021-11-01 00:38:00,,0829.5,5.00,0.00,25.9,25.1,00.0,35.0,27.8,16.8,0000.0,0005.25,0009.68,0004.71
2021-11-01 00:39:00,,0829.5,5.00,0.00,25.9,25.1,00.0,35.0,27.8,16.8,0000.0,0005.24,0010.21,0004.70
2021-11-01 00:40:00,,0829.7,5.01,0.00,25.9,25.1,00.0,35.0,27.8,16.9,0000.0,0005.27,0010.34,0004.71
2021-11-01 00:41:00,,0829.7,5.00,0.00,25.9,25.1,00.0,35.0,27.8,16.9,0000.0,0005.33,0010.63,0004.71
2021-11-01 00:42:00,,0829.7,4.99,0.00,25.9,25.0,00.0,35.0,27.8,16.9,0000.0,0005.38,0010.74,0004.72
2021-11-01 00:43:00,,0829.7,5.02,0.00,25.9,25.0,00.0,35.0,27.8,16.9,0000.0,0005.37,0011.03,0004.72
2021-11-01 00:44:00,,0829.6,5.00,0.00,25.9,25.0,00.0,35.0,27.8,16.9,0000.0,0005.35,0010.48,0004.72
2021-11-01 00:45:00,,0829.6,5.01,0.00,25.9,25.0,00.0,35.0,27.8,16.9,0000.0,0005.34,0010.22,0004.73
2021-11-01 00:46:00,,0829.7,4.99,0.00,25.9,25.1,00.0,34.9,27.8,16.9,0000.0,0005.35,0010.44,0004.74
2021-11-01 00:47:00,,0829.8,4.99,0.00,25.9,25.0,00.0,34.9,27.8,16.9,0000.0,0005.36,0011.01,0004.73
2021-11-01 00:48:00,,0829.8,5.00,0.00,25.9,25.0,00.0,34.9,27.8,16.9,0000.0,0005.33,0011.47,0004.72
2021-11-01 00:49:00,,0829.8,5.01,0.00,25.9,25.0,00.0,34.9,27.8,17.0,0000.0,0005.30,0011.40,0004.72
2021-11-01 00:50:00,,0829.8,5.01,0.00,25.9,25.0,00.0,34.9,27.8,17.0,0000.0,0005.33,0010.78,0004.71
2021-11-01 00:51:00,,0829.8,5.00,0.00,25.9,25.0,00.0,34.9,27.8,17.0,0000.0,0005.32,0010.95,0004.71
2021-11-01 00:52:00,,0829.9,5.00,0.00,25.9,25.1,00.0,34.9,27.8,17.1,0000.0,0005.30,0011.36,0004.69
2021-11-01 00:53:00,,0829.9,5.00,0.00,26.0,25.1,00.0,34.9,27.8,17.1,0000.0,0005.29,0011.39,0004.68
2021-11-01 00:54:00,,0829.9,5.00,0.00,26.0,25.1,00.0,35.0,27.8,17.1,0000.0,0005.28,0010.77,0004.67
2021-11-01 00:55:00,,0830.0,5.01,0.00,26.0,25.1,00.0,34.9,27.8,17.2,0000.0,0005.29,0010.78,0004.67
2021-11-01 00:56:00,,0830.0,4.98,0.00,26.0,25.1,00.0,34.9,27.8,17.2,0000.0,0005.31,0011.25,0004.65
2021-11-01 00:57:00,,0830.0,5.01,0.00,26.0,25.1,00.0,34.9,27.8,17.2,0000.0,0005.31,0011.20,0004.65
2021-11-01 00:58:00,,0829.9,5.00,0.00,26.0,25.1,00.0,34.9,27.8,17.2,0000.0,0005.28,0010.78,0004.65
2021-11-01 00:59:00,,0830.0,5.00,0.00,26.0,25.1,00.0,34.9,27.8,17.3,0000.0,0005.27,0011.11,0004.65
